Location: *
(49.5667°N, 1.3667°W)
Time: 04:05:57
(UTC+00:00)

Cosmos 1980 - Pass Details

Date: 20 September 2019
Orbit: 841 x 845 km, 71.0° (Epoch: 17 October)

Event Time Altitude Azimuth Distance (km) Brightness Sun altitude
Rises 19:20:01 0° 330° (NNW) 3,409 7.6 -12.2°
Reaches altitude 10° 19:22:28 10° 330° (NNW) 2,470 6.8 -12.6°
Maximum altitude 19:28:09 86° 244° (WSW) 850 3.7 -13.5°
Drops below altitude 10° 19:33:47 10° 155° (SSE) 2,453 5.7 -14.4°
Enters shadow 19:34:03 - 155° (SSE) 2,552 5.8 -14.4°
